| time (UTC) | temp C | wind direction | speed KPH | gust KPH | rain 1hr cm | rain 24hr cm | rain mn cm | humidity % | barometer mb |
| 20260906225010 | 36 | 74 | 4.8 | 20.9 | 0.00 | 0.00 | 0.00 | 37 | 1011.6 |
| 20260906224524 | 36 | 99 | 8.0 | 17.7 | 0.00 | 0.00 | 0.00 | 37 | 1011.5 |
| 20260906224010 | 36 | 45 | 8.0 | 16.1 | 0.00 | 0.00 | 0.00 | 36 | 1011.5 |
| 20260906223513 | 37 | 71 | 3.2 | 12.9 | 0.00 | 0.00 | 0.00 | 38 | 1011.5 |
| 20260906223037 | 37 | 78 | 3.2 | 14.5 | 0.00 | 0.00 | 0.00 | 38 | 1011.5 |
| 20260906222511 | 37 | 55 | 4.8 | 17.7 | 0.00 | 0.00 | 0.00 | 38 | 1011.5 |
| 20260906222012 | 37 | 235 | 4.8 | 17.7 | 0.00 | 0.00 | 0.00 | 37 | 1011.6 |
| 20260906221528 | 37 | 228 | 4.8 | 12.9 | 0.00 | 0.00 | 0.00 | 37 | 1011.5 |
| 20260906221011 | 37 | 360 | 4.8 | 17.7 | 0.00 | 0.00 | 0.00 | 36 | 1011.7 |
| 20260906220510 | 37 | 103 | 8.0 | 17.7 | 0.00 | 0.00 | 0.00 | 37 | 1011.8 |
| 20260906220027 | 37 | 138 | 6.4 | 14.5 | 0.00 | 0.00 | 0.00 | 37 | 1011.8 |
| 20260906215510 | 37 | 74 | 3.2 | 14.5 | 0.00 | 0.00 | 0.00 | 36 | 1011.8 |
| 20260906215012 | 37 | 98 | 4.8 | 16.1 | 0.00 | 0.00 | 0.00 | 37 | 1011.9 |
| 20260906214534 | 37 | 57 | 9.7 | 16.1 | 0.00 | 0.00 | 0.00 | 37 | 1011.9 |
| 20260906214016 | 37 | 134 | 3.2 | 11.3 | 0.00 | 0.00 | 0.00 | 38 | 1012.0 |
| 20260906213512 | 36 | 153 | 6.4 | 11.3 | 0.00 | 0.00 | 0.00 | 38 | 1012.0 |
| 20260906213027 | 36 | 54 | 4.8 | 14.5 | 0.00 | 0.00 | 0.00 | 37 | 1012.2 |
| 20260906212511 | 36 | 22 | 6.4 | 14.5 | 0.00 | 0.00 | 0.00 | 39 | 1012.3 |
| 20260906212006 | 37 | 360 | 4.8 | 14.5 | 0.00 | 0.00 | 0.00 | 38 | 1012.4 |
| 20260906211531 | 37 | 219 | 4.8 | 16.1 | 0.00 | 0.00 | 0.00 | 38 | 1012.4 |
| 20260906211015 | 37 | 63 | 4.8 | 16.1 | 0.00 | 0.00 | 0.00 | 37 | 1012.4 |
| 20260906210509 | 37 | 87 | 4.8 | 16.1 | 0.00 | 0.00 | 0.00 | 38 | 1012.6 |
| 20260906210020 | 37 | 86 | 8.0 | 16.1 | 0.00 | 0.00 | 0.00 | 38 | 1012.6 |
| 20260906205511 | 36 | 129 | 1.6 | 14.5 | 0.00 | 0.00 | 0.00 | 40 | 1012.6 |
| 20260906205013 | 36 | 82 | 6.4 | 14.5 | 0.00 | 0.00 | 0.00 | 39 | 1012.7 |
| 20260906204531 | 36 | 65 | 3.2 | 12.9 | 0.00 | 0.00 | 0.00 | 41 | 1012.6 |
| 20260906204003 | 36 | 57 | 4.8 | 12.9 | 0.00 | 0.00 | 0.00 | 39 | 1012.7 |
| 20260906203501 | 36 | 73 | 4.8 | 20.9 | 0.00 | 0.00 | 0.00 | 39 | 1012.8 |
| 20260906203009 | 36 | 24 | 4.8 | 20.9 | 0.00 | 0.00 | 0.00 | 40 | 1012.9 |
| 20260906202501 | 36 | 134 | 1.6 | 16.1 | 0.00 | 0.00 | 0.00 | 40 | 1012.9 |
| 20260906202004 | 36 | 280 | 1.6 | 16.1 | 0.00 | 0.00 | 0.00 | 41 | 1012.9 |
| 20260906201513 | 36 | 65 | 4.8 | 16.1 | 0.00 | 0.00 | 0.00 | 41 | 1013.0 |
| 20260906201006 | 36 | 126 | 6.4 | 16.1 | 0.00 | 0.00 | 0.00 | 40 | 1013.0 |
| 20260906200507 | 36 | 101 | 6.4 | 16.1 | 0.00 | 0.00 | 0.00 | 40 | 1013.1 |
| 20260906200035 | 36 | 115 | 4.8 | 16.1 | 0.00 | 0.00 | 0.00 | 40 | 1013.2 |
| 20260906195508 | 36 | 21 | 3.2 | 16.1 | 0.00 | 0.00 | 0.00 | 41 | 1013.2 |
| 20260906195014 | 37 | 83 | 6.4 | 16.1 | 0.00 | 0.00 | 0.00 | 39 | 1013.2 |
| 20260906194527 | 37 | 70 | 4.8 | 17.7 | 0.00 | 0.00 | 0.00 | 40 | 1013.2 |
| 20260906194012 | 36 | 173 | 4.8 | 17.7 | 0.00 | 0.00 | 0.00 | 39 | 1013.3 |
| 20260906193514 | 36 | 161 | 6.4 | 17.7 | 0.00 | 0.00 | 0.00 | 40 | 1013.3 |
| 20260906193004 | 36 | 90 | 6.4 | 16.1 | 0.00 | 0.00 | 0.00 | 39 | 1013.4 |
| 20260906192503 | 36 | 126 | 4.8 | 14.5 | 0.00 | 0.00 | 0.00 | 40 | 1013.4 |
| 20260906192003 | 36 | 90 | 4.8 | 12.9 | 0.00 | 0.00 | 0.00 | 40 | 1013.5 |
| 20260906191514 | 36 | 5 | 6.4 | 12.9 | 0.00 | 0.00 | 0.00 | 40 | 1013.6 |
| 20260906191005 | 36 | 136 | 4.8 | 19.3 | 0.00 | 0.00 | 0.00 | 40 | 1013.6 |
| 20260906190505 | 36 | 168 | 4.8 | 19.3 | 0.00 | 0.00 | 0.00 | 39 | 1013.6 |
| 20260906190017 | 36 | 313 | 1.6 | 20.9 | 0.00 | 0.00 | 0.00 | 40 | 1013.6 |
| 20260906185507 | 36 | 128 | 8.0 | 20.9 | 0.00 | 0.00 | 0.00 | 40 | 1013.7 |
| 20260906185008 | 36 | 158 | 3.2 | 12.9 | 0.00 | 0.00 | 0.00 | 43 | 1013.7 |
| 20260906184520 | 35 | 67 | 3.2 | 19.3 | 0.00 | 0.00 | 0.00 | 43 | 1013.8 |
| 20260906184011 | 36 | 90 | 6.4 | 19.3 | 0.00 | 0.00 | 0.00 | 42 | 1013.9 |
| 20260906183514 | 36 | 167 | 6.4 | 19.3 | 0.00 | 0.00 | 0.00 | 41 | 1013.9 |
| 20260906183028 | 36 | 196 | 4.8 | 14.5 | 0.00 | 0.00 | 0.00 | 41 | 1013.9 |
| 20260906182513 | 35 | 40 | 6.4 | 22.5 | 0.00 | 0.00 | 0.00 | 43 | 1014.0 |
| 20260906182002 | 35 | 115 | 6.4 | 22.5 | 0.00 | 0.00 | 0.00 | 43 | 1014.0 |
| 20260906181524 | 36 | 15 | 0.0 | 14.5 | 0.00 | 0.00 | 0.00 | 44 | 1014.1 |
| 20260906181005 | 35 | 138 | 4.8 | 16.1 | 0.00 | 0.00 | 0.00 | 44 | 1014.2 |
| 20260906180505 | 35 | 53 | 4.8 | 14.5 | 0.00 | 0.00 | 0.00 | 43 | 1014.3 |
| 20260906180020 | 35 | 86 | 4.8 | 14.5 | 0.00 | 0.00 | 0.00 | 44 | 1014.4 |
| 20260906175506 | 35 | 92 | 3.2 | 12.9 | 0.00 | 0.00 | 0.00 | 46 | 1014.4 |
| 20260906175010 | 35 | 101 | 4.8 | 16.1 | 0.00 | 0.00 | 0.00 | 43 | 1014.6 |
| 20260906174521 | 35 | 162 | 4.8 | 16.1 | 0.00 | 0.00 | 0.00 | 43 | 1014.6 |
| 20260906174013 | 35 | 92 | 6.4 | 16.1 | 0.00 | 0.00 | 0.00 | 44 | 1014.7 |
| 20260906173511 | 35 | 64 | 3.2 | 11.3 | 0.00 | 0.00 | 0.00 | 46 | 1014.8 |
| 20260906173026 | 35 | 95 | 4.8 | 11.3 | 0.00 | 0.00 | 0.00 | 47 | 1014.9 |
| 20260906172513 | 34 | 53 | 4.8 | 17.7 | 0.00 | 0.00 | 0.00 | 45 | 1014.9 |
| 20260906172014 | 34 | 167 | 9.7 | 17.7 | 0.00 | 0.00 | 0.00 | 46 | 1015.0 |
| 20260906171531 | 35 | 84 | 6.4 | 16.1 | 0.00 | 0.00 | 0.00 | 46 | 1015.1 |
| 20260906171000 | 35 | 66 | 4.8 | 14.5 | 0.00 | 0.00 | 0.00 | 48 | 1015.1 |
| 20260906170503 | 34 | 112 | 1.6 | 9.7 | 0.00 | 0.00 | 0.00 | 50 | 1015.2 |
| 20260906170009 | 34 | 26 | 4.8 | 14.5 | 0.00 | 0.00 | 0.00 | 48 | 1015.3 |
| 20260906165504 | 34 | 82 | 4.8 | 16.1 | 0.00 | 0.00 | 0.00 | 48 | 1015.4 |
| 20260906165004 | 34 | 112 | 6.4 | 16.1 | 0.00 | 0.00 | 0.00 | 49 | 1015.3 |
| 20260906164518 | 34 | 92 | 4.8 | 9.7 | 0.00 | 0.00 | 0.00 | 48 | 1015.4 |
| 20260906164010 | 34 | 58 | 3.2 | 8.0 | 0.00 | 0.00 | 0.00 | 50 | 1015.4 |
| 20260906163508 | 33 | 212 | 3.2 | 9.7 | 0.00 | 0.00 | 0.00 | 52 | 1015.4 |
| 20260906163023 | 33 | 220 | 1.6 | 9.7 | 0.00 | 0.00 | 0.00 | 52 | 1015.4 |
| 20260906162512 | 33 | 60 | 3.2 | 9.7 | 0.00 | 0.00 | 0.00 | 51 | 1015.5 |
| 20260906162012 | 33 | 75 | 3.2 | 12.9 | 0.00 | 0.00 | 0.00 | 51 | 1015.5 |
| 20260906161527 | 33 | 76 | 3.2 | 12.9 | 0.00 | 0.00 | 0.00 | 53 | 1015.5 |
| 20260906161014 | 33 | 69 | 3.2 | 9.7 | 0.00 | 0.00 | 0.00 | 54 | 1015.4 |
| 20260906160517 | 33 | 42 | 3.2 | 9.7 | 0.00 | 0.00 | 0.00 | 54 | 1015.4 |
| 20260906160033 | 32 | 21 | 4.8 | 9.7 | 0.00 | 0.00 | 0.00 | 53 | 1015.3 |
| 20260906155504 | 32 | 28 | 1.6 | 9.7 | 0.00 | 0.00 | 0.00 | 54 | 1015.3 |
| 20260906155005 | 32 | 86 | 3.2 | 8.0 | 0.00 | 0.00 | 0.00 | 56 | 1015.3 |
| 20260906154531 | 32 | 50 | 3.2 | 6.4 | 0.00 | 0.00 | 0.00 | 56 | 1015.3 |
| 20260906154008 | 32 | 70 | 1.6 | 6.4 | 0.00 | 0.00 | 0.00 | 58 | 1015.3 |
| 20260906153509 | 32 | 269 | 1.6 | 4.8 | 0.00 | 0.00 | 0.00 | 58 | 1015.2 |
| 20260906153022 | 31 | 292 | 0.0 | 3.2 | 0.00 | 0.00 | 0.00 | 59 | 1015.2 |
| 20260906152512 | 31 | 5 | 1.6 | 4.8 | 0.00 | 0.00 | 0.00 | 59 | 1015.2 |
| 20260906152011 | 31 | 84 | 1.6 | 4.8 | 0.00 | 0.00 | 0.00 | 58 | 1015.2 |
| 20260906151528 | 31 | 360 | 3.2 | 4.8 | 0.00 | 0.00 | 0.00 | 59 | 1015.2 |
| 20260906151017 | 31 | 236 | 0.0 | 3.2 | 0.00 | 0.00 | 0.00 | 61 | 1015.2 |
| 20260906150514 | 31 | 178 | 1.6 | 3.2 | 0.00 | 0.00 | 0.00 | 63 | 1015.2 |
| 20260906150030 | 31 | 269 | 0.0 | 4.8 | 0.00 | 0.00 | 0.00 | 61 | 1015.2 |
| 20260906145519 | 31 | 207 | 1.6 | 4.8 | 0.00 | 0.00 | 0.00 | 63 | 1015.1 |
| 20260906145022 | 31 | 182 | 0.0 | 4.8 | 0.00 | 0.00 | 0.00 | 64 | 1015.1 |
| 20260906144534 | 30 | 169 | 0.0 | 4.8 | 0.00 | 0.00 | 0.00 | 66 | 1015.1 |
| 20260906144018 | 30 | 107 | 1.6 | 4.8 | 0.00 | 0.00 | 0.00 | 66 | 1015.1 |
| 20260906143516 | 30 | 170 | 1.6 | 4.8 | 0.00 | 0.00 | 0.00 | 67 | 1015.1 |
| 20260906143034 | 30 | 167 | 1.6 | 4.8 | 0.00 | 0.00 | 0.00 | 68 | 1015.1 |
| 20260906142517 | 29 | 142 | 0.0 | 3.2 | 0.00 | 0.00 | 0.00 | 69 | 1015.1 |
| 20260906142011 | 28 | 176 | 0.0 | 4.8 | 0.00 | 0.00 | 0.00 | 70 | 1015.0 |
| 20260906141533 | 28 | 45 | 1.6 | 4.8 | 0.00 | 0.00 | 0.00 | 70 | 1015.0 |
| 20260906141013 | 28 | 80 | 1.6 | 6.4 | 0.00 | 0.00 | 0.00 | 71 | 1015.1 |
| 20260906140512 | 28 | 101 | 3.2 | 6.4 | 0.00 | 0.00 | 0.00 | 71 | 1015.1 |
| 20260906140030 | 28 | 59 | 1.6 | 4.8 | 0.00 | 0.00 | 0.00 | 72 | 1015.1 |
| 20260906135515 | 27 | 151 | 1.6 | 6.4 | 0.00 | 0.00 | 0.00 | 74 | 1015.1 |
| 20260906135018 | 27 | 90 | 0.0 | 6.4 | 0.00 | 0.00 | 0.00 | 75 | 1015.0 |
| 20260906134535 | 27 | 65 | 1.6 | 6.4 | 0.00 | 0.00 | 0.00 | 74 | 1015.0 |
| 20260906134018 | 26 | 105 | 1.6 | 4.8 | 0.00 | 0.00 | 0.00 | 75 | 1015.0 |
| 20260906133515 | 26 | 44 | 1.6 | 4.8 | 0.00 | 0.00 | 0.00 | 76 | 1014.9 |
| 20260906133032 | 26 | 71 | 0.0 | 4.8 | 0.00 | 0.00 | 0.00 | 77 | 1014.9 |
| 20260906132517 | 26 | 76 | 1.6 | 4.8 | 0.00 | 0.00 | 0.00 | 78 | 1014.9 |
| 20260906132018 | 26 | 82 | 1.6 | 6.4 | 0.00 | 0.00 | 0.00 | 78 | 1014.9 |
| 20260906131537 | 25 | 57 | 0.0 | 6.4 | 0.00 | 0.00 | 0.00 | 78 | 1014.9 |
| 20260906131016 | 25 | 61 | 0.0 | 4.8 | 0.00 | 0.00 | 0.00 | 79 | 1014.8 |
| 20260906130511 | 25 | 53 | 1.6 | 4.8 | 0.00 | 0.00 | 0.00 | 80 | 1014.7 |
| 20260906130030 | 25 | 67 | 0.0 | 4.8 | 0.00 | 0.00 | 0.00 | 80 | 1014.6 |
| 20260906125513 | 25 | 59 | 1.6 | 4.8 | 0.00 | 0.00 | 0.00 | 80 | 1014.6 |
| 20260906125013 | 24 | 51 | 0.0 | 4.8 | 0.00 | 0.00 | 0.00 | 81 | 1014.6 |
| 20260906124539 | 24 | 66 | 0.0 | 6.4 | 0.00 | 0.00 | 0.00 | 81 | 1014.6 |
| 20260906124014 | 24 | 61 | 1.6 | 6.4 | 0.00 | 0.00 | 0.00 | 81 | 1014.6 |
| 20260906123517 | 24 | 74 | 1.6 | 6.4 | 0.00 | 0.00 | 0.00 | 81 | 1014.5 |
| 20260906123033 | 24 | 83 | 0.0 | 1.6 | 0.00 | 0.00 | 0.00 | 82 | 1014.5 |
| 20260906122516 | 24 | 64 | 0.0 | 1.6 | 0.00 | 0.00 | 0.00 | 82 | 1014.5 |
| 20260906122010 | 23 | 34 | 0.0 | 0.0 | 0.00 | 0.00 | 0.00 | 82 | 1014.4 |
| 20260906121521 | 23 | 63 | 0.0 | 0.0 | 0.00 | 0.00 | 0.00 | 82 | 1014.4 |
| 20260906121003 | 23 | 74 | 0.0 | 3.2 | 0.00 | 0.00 | 0.00 | 82 | 1014.3 |
| 20260906120500 | 23 | 63 | 0.0 | 3.2 | 0.00 | 0.00 | 0.00 | 82 | 1014.2 |
| 20260906120004 | 24 | 132 | 0.0 | 0.0 | 0.00 | 0.00 | 0.00 | 81 | 1014.2 |
| 20260906115504 | 24 | 132 | 0.0 | 0.0 | 0.00 | 0.00 | 0.00 | 81 | 1014.1 |
| 20260906115003 | 24 | 132 | 0.0 | 0.0 | 0.00 | 0.00 | 0.00 | 81 | 1014.1 |
| 20260906114525 | 24 | 132 | 0.0 | 0.0 | 0.00 | 0.00 | 0.00 | 81 | 1013.9 |
| 20260906114003 | 24 | 132 | 0.0 | 0.0 | 0.00 | 0.00 | 0.00 | 80 | 1013.9 |
| 20260906113503 | 24 | 132 | 0.0 | 0.0 | 0.00 | 0.00 | 0.00 | 81 | 1013.8 |
| 20260906113014 | 24 | 132 | 0.0 | 0.0 | 0.00 | 0.00 | 0.00 | 81 | 1013.8 |
| 20260906112503 | 24 | 132 | 0.0 | 0.0 | 0.00 | 0.00 | 0.00 | 81 | 1013.7 |
| 20260906112008 | 24 | 132 | 0.0 | 0.0 | 0.00 | 0.00 | 0.00 | 81 | 1013.7 |
| 20260906111517 | 24 | 132 | 0.0 | 0.0 | 0.00 | 0.00 | 0.00 | 81 | 1013.7 |
| 20260906111011 | 24 | 132 | 0.0 | 0.0 | 0.00 | 0.00 | 0.00 | 81 | 1013.7 |
| 20260906110512 | 24 | 132 | 0.0 | 0.0 | 0.00 | 0.00 | 0.00 | 81 | 1013.8 |
| 20260906110028 | 24 | 132 | 0.0 | 0.0 | 0.00 | 0.00 | 0.00 | 81 | 1013.8 |
| 20260906105504 | 24 | 132 | 0.0 | 0.0 | 0.00 | 0.00 | 0.00 | 81 | 1013.7 |
| 20260906105004 | 24 | 132 | 0.0 | 0.0 | 0.00 | 0.00 | 0.00 | 81 | 1013.7 |
| 20260906104508 | 24 | 132 | 0.0 | 0.0 | 0.00 | 0.00 | 0.00 | 81 | 1013.7 |
| 20260906104003 | 24 | 132 | 0.0 | 0.0 | 0.00 | 0.00 | 0.00 | 80 | 1013.7 |
| 20260906103504 | 24 | 132 | 0.0 | 0.0 | 0.00 | 0.00 | 0.00 | 80 | 1013.7 |
| 20260906103012 | 24 | 132 | 0.0 | 0.0 | 0.00 | 0.00 | 0.00 | 80 | 1013.7 |
| 20260906102508 | 24 | 132 | 0.0 | 0.0 | 0.00 | 0.00 | 0.00 | 79 | 1013.7 |
| 20260906102003 | 25 | 132 | 0.0 | 0.0 | 0.00 | 0.00 | 0.00 | 79 | 1013.7 |
| 20260906101516 | 25 | 132 | 0.0 | 0.0 | 0.00 | 0.00 | 0.00 | 79 | 1013.6 |
| 20260906101009 | 25 | 132 | 0.0 | 0.0 | 0.00 | 0.00 | 0.00 | 79 | 1013.6 |
| 20260906100508 | 25 | 132 | 0.0 | 0.0 | 0.00 | 0.00 | 0.00 | 79 | 1013.6 |
| 20260906100029 | 25 | 132 | 0.0 | 0.0 | 0.00 | 0.00 | 0.00 | 79 | 1013.6 |
| 20260906095511 | 25 | 132 | 0.0 | 0.0 | 0.00 | 0.00 | 0.00 | 79 | 1013.5 |
| 20260906095013 | 25 | 132 | 0.0 | 0.0 | 0.00 | 0.00 | 0.00 | 79 | 1013.5 |
| 20260906094513 | 25 | 132 | 0.0 | 0.0 | 0.00 | 0.00 | 0.00 | 78 | 1013.6 |
| 20260906094001 | 25 | 132 | 0.0 | 0.0 | 0.00 | 0.00 | 0.00 | 78 | 1013.5 |
| 20260906093503 | 25 | 132 | 0.0 | 0.0 | 0.00 | 0.00 | 0.00 | 77 | 1013.5 |
| 20260906093017 | 25 | 132 | 0.0 | 0.0 | 0.00 | 0.00 | 0.00 | 77 | 1013.4 |
| 20260906092504 | 25 | 132 | 0.0 | 0.0 | 0.00 | 0.00 | 0.00 | 77 | 1013.3 |
| 20260906092003 | 25 | 132 | 0.0 | 0.0 | 0.00 | 0.00 | 0.00 | 77 | 1013.2 |
| 20260906091515 | 25 | 132 | 0.0 | 0.0 | 0.00 | 0.00 | 0.00 | 77 | 1013.1 |
| 20260906091005 | 25 | 132 | 0.0 | 0.0 | 0.00 | 0.00 | 0.00 | 77 | 1013.0 |
| 20260906090509 | 25 | 132 | 0.0 | 0.0 | 0.00 | 0.00 | 0.00 | 77 | 1013.1 |
| 20260906090030 | 25 | 132 | 0.0 | 0.0 | 0.00 | 0.00 | 0.00 | 77 | 1013.1 |
| 20260906085512 | 25 | 132 | 0.0 | 0.0 | 0.00 | 0.00 | 0.00 | 77 | 1013.0 |
| 20260906085011 | 25 | 132 | 0.0 | 0.0 | 0.00 | 0.00 | 0.00 | 77 | 1012.9 |
| 20260906084527 | 25 | 132 | 0.0 | 0.0 | 0.00 | 0.00 | 0.00 | 76 | 1013.0 |
| 20260906084015 | 26 | 132 | 0.0 | 0.0 | 0.00 | 0.00 | 0.00 | 76 | 1013.0 |
| 20260906083500 | 26 | 117 | 0.0 | 4.8 | 0.00 | 0.00 | 0.00 | 76 | 1012.9 |
| 20260906083004 | 26 | 117 | 1.6 | 4.8 | 0.00 | 0.00 | 0.00 | 76 | 1012.9 |
| 20260906082504 | 26 | 132 | 0.0 | 4.8 | 0.00 | 0.00 | 0.00 | 76 | 1013.0 |
| 20260906082004 | 26 | 140 | 0.0 | 4.8 | 0.00 | 0.00 | 0.00 | 76 | 1013.0 |
| 20260906081514 | 26 | 128 | 1.6 | 4.8 | 0.00 | 0.00 | 0.00 | 76 | 1013.1 |
| 20260906081005 | 26 | 103 | 0.0 | 4.8 | 0.00 | 0.00 | 0.00 | 76 | 1013.2 |
| 20260906080508 | 26 | 131 | 1.6 | 4.8 | 0.00 | 0.00 | 0.00 | 76 | 1013.3 |
| 20260906080017 | 26 | 148 | 0.0 | 6.4 | 0.00 | 0.00 | 0.00 | 76 | 1013.3 |
| 20260906075509 | 26 | 170 | 3.2 | 6.4 | 0.00 | 0.00 | 0.00 | 76 | 1013.4 |
| 20260906075011 | 26 | 155 | 3.2 | 6.4 | 0.00 | 0.00 | 0.00 | 76 | 1013.4 |
| 20260906074527 | 26 | 140 | 1.6 | 4.8 | 0.00 | 0.00 | 0.00 | 76 | 1013.5 |
| 20260906074012 | 26 | 135 | 0.0 | 3.2 | 0.00 | 0.00 | 0.00 | 76 | 1013.4 |
| 20260906073514 | 26 | 130 | 0.0 | 3.2 | 0.00 | 0.00 | 0.00 | 76 | 1013.5 |
| 20260906073031 | 26 | 146 | 0.0 | 3.2 | 0.00 | 0.00 | 0.00 | 75 | 1013.4 |
| 20260906072504 | 26 | 134 | 1.6 | 3.2 | 0.00 | 0.00 | 0.00 | 76 | 1013.4 |
| 20260906072003 | 26 | 119 | 1.6 | 3.2 | 0.00 | 0.00 | 0.00 | 75 | 1013.4 |
| 20260906071508 | 26 | 119 | 1.6 | 3.2 | 0.00 | 0.00 | 0.00 | 76 | 1013.4 |
| 20260906071004 | 26 | 143 | 0.0 | 3.2 | 0.00 | 0.00 | 0.00 | 76 | 1013.3 |
| 20260906070506 | 26 | 143 | 0.0 | 0.0 | 0.00 | 0.00 | 0.00 | 76 | 1013.3 |
| 20260906070017 | 26 | 143 | 0.0 | 4.8 | 0.00 | 0.00 | 0.00 | 76 | 1013.4 |
| 20260906065509 | 26 | 143 | 0.0 | 8.0 | 0.00 | 0.00 | 0.00 | 76 | 1013.4 |
| 20260906065008 | 26 | 133 | 0.0 | 8.0 | 0.00 | 0.00 | 0.00 | 77 | 1013.4 |
| 20260906064519 | 26 | 134 | 1.6 | 6.4 | 0.00 | 0.00 | 0.00 | 77 | 1013.5 |
| 20260906064012 | 26 | 132 | 1.6 | 6.4 | 0.00 | 0.00 | 0.00 | 77 | 1013.7 |
| 20260906063511 | 26 | 144 | 1.6 | 4.8 | 0.00 | 0.00 | 0.00 | 77 | 1013.7 |
| 20260906063034 | 26 | 142 | 1.6 | 3.2 | 0.00 | 0.00 | 0.00 | 77 | 1013.7 |
| 20260906062514 | 26 | 134 | 0.0 | 1.6 | 0.00 | 0.00 | 0.00 | 76 | 1013.6 |
| 20260906062015 | 26 | 134 | 0.0 | 0.0 | 0.00 | 0.00 | 0.00 | 76 | 1013.6 |
| 20260906061510 | 26 | 134 | 0.0 | 0.0 | 0.00 | 0.00 | 0.00 | 75 | 1013.7 |
| 20260906061003 | 26 | 134 | 0.0 | 0.0 | 0.00 | 0.00 | 0.00 | 74 | 1013.8 |
| 20260906060503 | 26 | 134 | 0.0 | 0.0 | 0.00 | 0.00 | 0.00 | 74 | 1013.8 |
| 20260906060013 | 26 | 134 | 0.0 | 0.0 | 0.00 | 0.00 | 0.00 | 74 | 1013.9 |
| 20260906055507 | 26 | 134 | 0.0 | 0.0 | 0.00 | 0.00 | 0.00 | 74 | 1014.0 |
| 20260906055009 | 26 | 134 | 0.0 | 0.0 | 0.00 | 0.00 | 0.00 | 75 | 1014.0 |
| 20260906054519 | 26 | 134 | 0.0 | 0.0 | 0.00 | 0.00 | 0.00 | 76 | 1014.0 |
| 20260906054010 | 26 | 134 | 0.0 | 0.0 | 0.00 | 0.00 | 0.00 | 76 | 1013.9 |
| 20260906053510 | 26 | 134 | 0.0 | 0.0 | 0.00 | 0.00 | 0.00 | 77 | 1013.9 |
| 20260906053027 | 26 | 134 | 0.0 | 3.2 | 0.00 | 0.00 | 0.00 | 76 | 1013.9 |
| 20260906052512 | 26 | 134 | 0.0 | 3.2 | 0.00 | 0.00 | 0.00 | 77 | 1013.9 |
| 20260906052014 | 26 | 134 | 0.0 | 4.8 | 0.00 | 0.00 | 0.00 | 79 | 1013.9 |
| 20260906051541 | 26 | 153 | 0.0 | 9.7 | 0.00 | 0.00 | 0.00 | 79 | 1013.8 |
| 20260906051015 | 26 | 161 | 3.2 | 9.7 | 0.00 | 0.00 | 0.00 | 80 | 1013.9 |
| 20260906050518 | 25 | 141 | 3.2 | 8.0 | 0.00 | 0.00 | 0.00 | 83 | 1013.9 |
| 20260906050011 | 25 | 102 | 1.6 | 6.4 | 0.00 | 0.00 | 0.00 | 83 | 1013.8 |
| 20260906045508 | 25 | 142 | 3.2 | 9.7 | 0.00 | 0.00 | 0.00 | 84 | 1013.8 |
| 20260906045003 | 25 | 150 | 1.6 | 9.7 | 0.00 | 0.00 | 0.00 | 84 | 1013.8 |
| 20260906044515 | 25 | 127 | 3.2 | 8.0 | 0.00 | 0.00 | 0.00 | 85 | 1013.7 |
| 20260906044007 | 25 | 155 | 3.2 | 9.7 | 0.00 | 0.00 | 0.00 | 85 | 1013.8 |
| 20260906043510 | 25 | 140 | 4.8 | 9.7 | 0.00 | 0.00 | 0.00 | 85 | 1013.8 |
| 20260906043023 | 25 | 130 | 3.2 | 8.0 | 0.00 | 0.00 | 0.00 | 84 | 1013.7 |
| 20260906042510 | 26 | 92 | 1.6 | 9.7 | 0.00 | 0.00 | 0.00 | 82 | 1013.6 |
| 20260906042011 | 27 | 146 | 3.2 | 11.3 | 0.00 | 0.00 | 0.00 | 77 | 1013.6 |
| 20260906041527 | 28 | 152 | 3.2 | 11.3 | 0.00 | 0.00 | 0.00 | 65 | 1013.6 |
| 20260906041014 | 28 | 223 | 4.8 | 14.5 | 0.00 | 0.00 | 0.00 | 65 | 1013.6 |
| 20260906040515 | 28 | 174 | 6.4 | 14.5 | 0.00 | 0.00 | 0.00 | 65 | 1013.6 |
| 20260906040033 | 28 | 120 | 4.8 | 14.5 | 0.00 | 0.00 | 0.00 | 65 | 1013.6 |
| 20260906035516 | 27 | 82 | 3.2 | 12.9 | 0.00 | 0.00 | 0.00 | 66 | 1013.6 |
| 20260906035004 | 27 | 140 | 3.2 | 12.9 | 0.00 | 0.00 | 0.00 | 67 | 1013.7 |
| 20260906034512 | 27 | 69 | 8.0 | 12.9 | 0.00 | 0.00 | 0.00 | 67 | 1013.6 |
| 20260906034008 | 27 | 163 | 1.6 | 9.7 | 0.00 | 0.00 | 0.00 | 67 | 1013.6 |
| 20260906033507 | 27 | 128 | 3.2 | 9.7 | 0.00 | 0.00 | 0.00 | 68 | 1013.6 |
| 20260906033032 | 27 | 136 | 1.6 | 9.7 | 0.00 | 0.00 | 0.00 | 70 | 1013.6 |
| 20260906032509 | 27 | 121 | 3.2 | 9.7 | 0.00 | 0.00 | 0.00 | 71 | 1013.6 |
| 20260906032011 | 26 | 122 | 4.8 | 9.7 | 0.00 | 0.00 | 0.00 | 72 | 1013.5 |
| 20260906031536 | 26 | 141 | 3.2 | 11.3 | 0.00 | 0.00 | 0.00 | 74 | 1013.5 |
| 20260906031011 | 26 | 149 | 4.8 | 12.9 | 0.00 | 0.00 | 0.00 | 77 | 1013.5 |
| 20260906030513 | 26 | 128 | 3.2 | 12.9 | 0.00 | 0.00 | 0.00 | 80 | 1013.5 |
| 20260906030032 | 26 | 115 | 1.6 | 9.7 | 0.00 | 0.00 | 0.00 | 80 | 1013.5 |
| 20260906025516 | 26 | 147 | 1.6 | 9.7 | 0.00 | 0.00 | 0.00 | 78 | 1013.5 |
| 20260906025017 | 27 | 143 | 4.8 | 12.9 | 0.00 | 0.00 | 0.00 | 75 | 1013.4 |
| 20260906024545 | 29 | 135 | 3.2 | 12.9 | 0.00 | 0.00 | 0.00 | 65 | 1013.5 |
| 20260906024003 | 29 | 209 | 4.8 | 11.3 | 0.00 | 0.00 | 0.00 | 59 | 1013.3 |
| 20260906023506 | 29 | 138 | 3.2 | 12.9 | 0.00 | 0.00 | 0.00 | 59 | 1013.3 |
| 20260906023024 | 29 | 114 | 6.4 | 12.9 | 0.00 | 0.00 | 0.00 | 60 | 1013.2 |
| 20260906022509 | 28 | 135 | 4.8 | 11.3 | 0.00 | 0.00 | 0.00 | 60 | 1013.0 |
| 20260906022014 | 28 | 143 | 4.8 | 11.3 | 0.00 | 0.00 | 0.00 | 62 | 1013.0 |
| 20260906021526 | 27 | 179 | 3.2 | 9.7 | 0.00 | 0.00 | 0.00 | 63 | 1012.9 |
| 20260906021011 | 27 | 123 | 3.2 | 11.3 | 0.00 | 0.00 | 0.00 | 65 | 1012.8 |
| 20260906020513 | 27 | 180 | 4.8 | 11.3 | 0.00 | 0.00 | 0.00 | 68 | 1012.8 |
| 20260906020030 | 26 | 154 | 3.2 | 9.7 | 0.00 | 0.00 | 0.00 | 69 | 1012.6 |
| 20260906015515 | 26 | 130 | 3.2 | 11.3 | 0.00 | 0.00 | 0.00 | 69 | 1012.5 |
| 20260906015016 | 26 | 126 | 3.2 | 11.3 | 0.00 | 0.00 | 0.00 | 69 | 1012.4 |
| 20260906014549 | 26 | 118 | 3.2 | 9.7 | 0.00 | 0.00 | 0.00 | 70 | 1012.4 |
| 20260906014017 | 26 | 108 | 1.6 | 3.2 | 0.00 | 0.00 | 0.00 | 70 | 1012.3 |
| 20260906013517 | 27 | 83 | 0.0 | 3.2 | 0.00 | 0.00 | 0.00 | 70 | 1012.2 |
| 20260906013034 | 27 | 78 | 0.0 | 4.8 | 0.00 | 0.00 | 0.00 | 70 | 1012.1 |
| 20260906012510 | 28 | 133 | 1.6 | 4.8 | 0.00 | 0.00 | 0.00 | 68 | 1012.0 |
| 20260906012010 | 30 | 103 | 0.0 | 4.8 | 0.00 | 0.00 | 0.00 | 61 | 1012.0 |
| 20260906011523 | 32 | 105 | 0.0 | 4.8 | 0.00 | 0.00 | 0.00 | 60 | 1012.0 |
| 20260906011011 | 33 | 136 | 0.0 | 9.7 | 0.00 | 0.00 | 0.00 | 46 | 1011.9 |
| 20260906010511 | 33 | 87 | 0.0 | 9.7 | 0.00 | 0.00 | 0.00 | 43 | 1011.9 |
| 20260906010028 | 33 | 98 | 1.6 | 9.7 | 0.00 | 0.00 | 0.00 | 43 | 1011.8 |
| 20260906005513 | 33 | 61 | 1.6 | 9.7 | 0.00 | 0.00 | 0.00 | 42 | 1011.9 |
| 20260906005015 | 34 | 219 | 1.6 | 4.8 | 0.00 | 0.00 | 0.00 | 41 | 1011.8 |
| 20260906004531 | 34 | 108 | 1.6 | 6.4 | 0.00 | 0.00 | 0.00 | 41 | 1011.8 |
| 20260906004015 | 34 | 155 | 1.6 | 6.4 | 0.00 | 0.00 | 0.00 | 40 | 1011.7 |
| 20260906003516 | 35 | 51 | 1.6 | 8.0 | 0.00 | 0.00 | 0.00 | 40 | 1011.7 |
| 20260906003034 | 35 | 108 | 1.6 | 8.0 | 0.00 | 0.00 | 0.00 | 40 | 1011.7 |
| 20260906002515 | 35 | 98 | 1.6 | 8.0 | 0.00 | 0.00 | 0.00 | 39 | 1011.6 |
| 20260906002008 | 35 | 349 | 1.6 | 8.0 | 0.00 | 0.00 | 0.00 | 39 | 1011.6 |
| 20260906001521 | 35 | 299 | 1.6 | 11.3 | 0.00 | 0.00 | 0.00 | 39 | 1011.6 |
| 20260906001008 | 35 | 84 | 3.2 | 11.3 | 0.00 | 0.00 | 0.00 | 38 | 1011.5 |
| 20260906000511 | 35 | 269 | 3.2 | 12.9 | 0.00 | 0.00 | 0.00 | 38 | 1011.4 |
| 20260906000023 | 36 | 96 | 4.8 | 12.9 | 0.00 | 0.00 | 0.00 | 38 | 1011.5 |
| 20260905235514 | 36 | 121 | 1.6 | 12.9 | 0.00 | 0.00 | 0.00 | 37 | 1011.4 |
| 20260905235013 | 36 | 122 | 4.8 | 12.9 | 0.00 | 0.00 | 0.00 | 37 | 1011.4 |
| 20260905234532 | 36 | 86 | 4.8 | 12.9 | 0.00 | 0.00 | 0.00 | 36 | 1011.4 |
| 20260905234015 | 36 | 157 | 4.8 | 16.1 | 0.00 | 0.00 | 0.00 | 35 | 1011.4 |
| 20260905233520 | 36 | 151 | 8.0 | 16.1 | 0.00 | 0.00 | 0.00 | 36 | 1011.4 |
| 20260905233032 | 36 | 101 | 3.2 | 14.5 | 0.00 | 0.00 | 0.00 | 36 | 1011.4 |
| 20260905232518 | 36 | 97 | 4.8 | 14.5 | 0.00 | 0.00 | 0.00 | 36 | 1011.4 |
| 20260905232020 | 36 | 163 | 4.8 | 16.1 | 0.00 | 0.00 | 0.00 | 36 | 1011.4 |
| 20260905231535 | 36 | 98 | 8.0 | 16.1 | 0.00 | 0.00 | 0.00 | 36 | 1011.4 |
| 20260905231015 | 36 | 127 | 4.8 | 17.7 | 0.00 | 0.00 | 0.00 | 35 | 1011.4 |
| 20260905230507 | 36 | 130 | 3.2 | 17.7 | 0.00 | 0.00 | 0.00 | 36 | 1011.4 |
| 20260905230023 | 36 | 97 | 4.8 | 14.5 | 0.00 | 0.00 | 0.00 | 35 | 1011.4 |
| 20260905225512 | 37 | 161 | 6.4 | 19.3 | 0.00 | 0.00 | 0.00 | 36 | 1011.4 |